Volver al catálogo

MKA PN2

RELEK

ActivoCienciaSSO
NORAD 40070·PAYLOAD·🇷🇺 Russia

Lanzado Jul 8, 2014 desde Baikonur Cosmodrome

Loading…

Próximos Pases (próximas 24 horas)

TLE

ActualizadoSource: Space-Track

Época: Sep 14, 2026, 09:10 UTC

1 40070U 14037B   26257.38260130  .00000235  00000-0  58015-4 0  9994
2 40070  98.0810 232.4260 0130644 151.0051 209.8487 14.55732814646069

Sigue MKA PN2 en tiempo real con AllMySat

Download on the App Store